Location: Finney State Fishing Lake and Wildlife Area
(38.1834°N, 100.3310°W)
Time: 02:41:04
(UTC+00:00)

Tiangong - Pass Details

Date: 07 December 2022
Orbit: 383 x 386 km, 41.5° (Epoch: 03 February)

Event Time Altitude Azimuth Distance (km) Brightness Sun altitude
Rises 23:50:14 0° 277° (W) 2,250 2.9 -6.0°
Reaches altitude 10° 23:52:22 10° 284° (WNW) 1,398 1.6 -6.4°
Drops below altitude 10° 23:58:26 10° 72° (ENE) 1,401 0.0 -7.4°
Enters shadow 23:58:29 10° 72° (ENE) 1,419 0.0 -7.5°
Exits shadow 00:33:53 -71° 98° (E) 12,446 5.4 -14.0°
